Tracking 19570 objects as of 22-Feb-2019
HD Live streaming from Space Station
objects crossing your sky now

COSMOS 2110 (GLONASS)

Track COSMOS 2110 (GLONASS) now!
COSMOS 2110 (GLONASS) is classified as:


NORAD ID: 21007
Int'l Code: 1990-110B
Perigee: 19,021.7 km
Apogee: 19,252.5 km
Inclination: 64.1 °
Period: 675.7 minutes
Semi major axis: 25508 km
RCS: 1.5445 m2 (large)
Launch date: December 8, 1990
Source: Commonwealth of Independent States (former USSR) (CIS)
Launch site: TYURATAM MISSILE AND SPACE COMPLEX (TTMTR)
aabbcc
Your satellite tracking list
Your tracking list is empty




NASA's NSSDC Master Catalog

Two Line Element Set (TLE):
1 21007U 90110B   19052.80211480 +.00000018 +00000-0 +00000-0 0  9991
2 21007 064.1334 163.3641 0045231 192.8959 128.7224 02.13100907219512
Source of the keplerian elements: AFSPC